Location: Henham
(51.9333°N, 0.2500°E)
Time: 13:49:09
(UTC+00:00)

STARLINK-79 - Pass Details

Date: 23 October 2019
Orbit: 548 x 552 km, 53.0° (Epoch: 11 November)

Event Time Altitude Azimuth Distance (km) Brightness Sun altitude
Rises 17:36:50 0° 272° (W) 2,717 9.3 -8.0°
Reaches altitude 10° 17:39:04 10° 274° (W) 1,824 7.8 -8.4°
Maximum altitude 17:43:13 75° 0° (N) 573 3.7 -9.0°
Enters shadow 17:46:53 13° 86° (E) 1,635 5.3 -9.6°
